{"data":{"norad_id":58645,"intl_designator":"2023-205A","name":"TIANMU-1 11","alt_names":[],"object_type":"PAYLOAD","status":"ACTIVE","operator":null,"country":"PRC","launch_date":"2023-12-25","launch_site_code":"JSC","launch_vehicle":null,"mission":null,"orbit_class":"UNKNOWN","rcs_meters":null,"size_class":null,"mass_kg":null,"dimensions":null,"purposes":["earth_obs"],"wikipedia_slug":null,"has_3d_model":false,"image_url":null,"decayed_at":null,"tle_current":{"epoch":"2026-09-19T23:31:47.959680Z","epoch_age_seconds":59270,"freshness":"FRESH","line1":"1 58645U 23205A   26262.98041620  .00003564  00000+0  13379-3 0  9991","line2":"2 58645  97.3434 283.0949 0009618  38.9016 321.2914 15.27811679151990","mean_motion":15.27811679,"eccentricity":0.0009618,"inclination_deg":97.3434,"raan_deg":283.0949,"arg_perigee_deg":38.9016,"mean_anomaly_deg":321.2914,"bstar":0.00013379,"rev_number":15199,"period_min":94.252454002873,"perigee_km":475.75703179233,"apogee_km":488.95387507576,"semimajor_km":6860.492453434,"source":"CELESTRAK","updated_at":"2026-09-20T09:00:33.254056Z"}}}